User: anonymous   Login
Location: Pinon Hills
(34.4429°N, 117.6403°W)
Time: 01:05:11
(UTC-07:00)
Language:

XW-2F - Orbit

View from above orbital plane
View from above orbital plane
View from above satellite
View from above satellite

Ground track
Ground track

The orbit data is extracted from the following two-line orbital elements,

1 40910U 15049M   19110.91015611 +.00000965 +00000-0 +51883-4 0  9998
2 40910 097.4618 115.5157 0016184 039.0837 048.8761 15.17167027198106
Epoch (UTC): 20 April 2019 21:50:37
Eccentricity: 0.0016184
inclination: 97.4618°
perigee height: 503 km
apogee height: 525 km
right ascension of ascending node: 115.5157°
argument of perigee: 39.0837°
revolutions per day: 15.17167027
mean anomaly at epoch: 48.8761°
orbit number at epoch: 19810

The dashed part of the orbit path shows where the satellite is in the earth's shadow,  

DLR